Regional Weather Roundup
Issued by NWS Raleigh/Durham, NC

Home | Current Version | Previous Version | Text Only | Print | Product List | Glossary On
Versions: 1 2 3 4 5 6 7 8 9 10 11 12 13 14 15 16 17 18 19 20 21 22 23 24 25 26 27 28 29 30 31 32 33 34 35 36 37 38 39 40 41 42 43 44 45 46 47 48 49 50
809
ASUS42 KRAH 130710
RWRRAH
NORTH CAROLINA WEATHER ROUNDUP
NATIONAL WEATHER SERVICE RALEIGH NC
200 AM EST SAT FEB 13 2016

NOTE: "FAIR" INDICATES FEW OR NO CLOUDS BELOW 12,000 FEET WITH NO
SIGNIFICANT WEATHER AND/OR OBSTRUCTIONS TO VISIBILITY.

NCZ001-053-055-056-065-067-130800-
WESTERN NORTH CAROLINA

CITY           SKY/WX    TMP DP  RH WIND       PRES   REMARKS
ASHEVILLE      LGT SNOW  26  21  81 N16G25    30.04S WCI  14
JEFFERSON      HVY SNOW  20  15  79 NW37G54   29.86R VSB 1/4 WCI   0
MORGANTON      PTCLDY    33  14  45 W12       30.10R WCI  24
HICKORY        CLEAR     33  13  43 NW14G25   30.04S WCI  23
RUTHERFORDTON  CLOUDY    33  16  48 NW17G23   30.06R WCI  22
MOUNT AIRY     PTCLDY    32  17  54 NW9G21    30.05R WCI  24
BOONE          LGT SNOW  21  17  82 NW36G52   29.91S WCI   2
$$

NCZ021-022-025-041-071-084-088-130800-
CENTRAL NORTH CAROLINA

CITY           SKY/WX    TMP DP  RH WIND       PRES   REMARKS
CHARLOTTE      PTCLDY    36  17  46 NW12      30.07R WCI  28
GREENSBORO     MOCLDY    34  16  47 NW17      30.01S WCI  23
WINSTON-SALEM  CLEAR     33  15  47 W8        30.04R WCI  26
RALEIGH-DURHAM MOCLDY    30  22  72 CALM      30.04R
FORT BRAGG     CLEAR     28  27  93 CALM      30.03S
FAYETTEVILLE   CLEAR     30  28  92 W6        30.04S FOG     WCI  24
BURLINGTON     PTCLDY    35  15  44 NW14G26   30.02S WCI  26
LAURINBURG     FOG       27  24  89 CALM      30.07R VSB 1/4
$$

NCZ011-015-027-028-043-044-047-080-103-130800-
NORTHEASTERN NORTH CAROLINA

CITY           SKY/WX    TMP DP  RH WIND       PRES   REMARKS
ROCKY MT-WILSO MOCLDY    28  25  88 W3        30.04S
GREENVILLE     PTCLDY    28  27  93 W3        30.06S
WASHINGTON     PTCLDY    28  25  89 CALM      30.04R
ELIZABETH CITY CLEAR     23  21  92 NW5       30.02S WCI  17
MANTEO         PTCLDY    30  27  89 NW7       30.02R WCI  23
CAPE HATTERAS  CLOUDY    34  29  82 NW13G18   30.02R WCI  25
$$

NCZ078-087-090-091-093-098-101-130800-
SOUTHEASTERN NORTH CAROLINA

CITY           SKY/WX    TMP DP  RH WIND       PRES   REMARKS
LUMBERTON      CLEAR     28  26  92 CALM      30.06S FOG
GOLDSBORO      CLEAR     28  28 100 W5        30.02S WCI  23
KINSTON        PTCLDY    30  29  95 CALM      30.05R
KENANSVILLE    PTCLDY    30  30 100 CALM      30.05S FOG
NEW BERN       CLOUDY    32  29  88 W7        30.05R WCI  26
CHERRY POINT   CLOUDY    33  30  88 NW10      30.04S WCI  25
BEAUFORT       CLOUDY    33  31  92 N10       30.02S WCI  25
JACKSONVILLE   CLOUDY    32  30  92 NW6       30.04S FOG     WCI  26
WILMINGTON     CLOUDY    31  29  92 NW7       30.05S FOG     WCI  24
$$





USA.gov is the U.S. government's official web portal to all federal, state and local government web resources and services.